カタログに戻る

CZ-6A DEB

運用中SSO
NORAD 54573·DEBRIS·🇨🇳 China

打ち上げ Nov 11, 2022 から Taiyuan Satellite Launch Center

Loading…

次のパス (今後24時間)

TLE

最新Source: Space-Track

元期: Sep 14, 2026, 03:19 UTC

1 54573U 22151LZ  26257.13850428  .00002529  00000-0  57647-3 0  9998
2 54573  98.6025 313.5834 0092604  33.3338 327.3642 14.54152371201954

AllMySatでCZ-6A DEBをリアルタイム追跡

Download on the App Store